Location: Bocchiglicro
(39.4167°N, 16.7500°E)
Time: 19:03:44
(UTC+00:00)

PSLV R/B - Pass Details

Date: 07 June 2020
Orbit: 593 x 630 km, 97.9° (Epoch: 07 July)

Event Time Altitude Azimuth Distance (km) Brightness Sun altitude
Rises 02:36:11 0° 15° (NNE) 2,843 7.9 -8.7°
Reaches altitude 10° 02:38:22 10° 18° (NNE) 1,935 7.1 -8.4°
Maximum altitude 02:42:33 67° 101° (E) 647 3.9 -7.8°
Drops below altitude 10° 02:46:41 10° 185° (S) 1,921 5.7 -7.1°
Sets 02:48:51 0° 187° (S) 2,820 6.5 -6.8°
